Weather History for Kirksville, MO

Change the Weather History Date:

Friday, July 26, 2013

  Actual Average Record
Temperature  
Mean Temperature 71 °F 76 °F  
Max Temperature 86 °F 86 °F 107 °F (1936)
Min Temperature 56 °F 65 °F 48 °F (1962)
Degree Days  
Heating Degree Days 0 0  
Month to date heating degree days 0 0  
Since 1 June heating degree days 36 16  
Since 1 July heating degree days 0 0  
Cooling Degree Days 6 11  
Month to date cooling degree days 245 261  
Year to date cooling degree days 520 515  
Since 1 June cooling degree days 452 453  
Growing Degree Days 22 (Base 50)    
Moisture  
Dew Point 64 °F    
Average Humidity 69    
Maximum Humidity 93    
Minimum Humidity 45    
Precipitation  
Precipitation 0.14 in 0.16 in 1.88 in (1981)
Month to date precipitation 0.77 3.86  
Year to date precipitation 28.68 22.79  
Sea Level Pressure  
Sea Level Pressure 30.01 in    
Wind  
Wind Speed 7 mph (WSW)    
Max Wind Speed 15 mph    
Max Gust Speed 22 mph    
Visibility 9 miles    
Events Rain    
T = Trace of Precipitation, MM = Missing Value Source: NWS Daily Summary

Daily Weather History Graph

Daily Weather History Graph

Search for Another Location

Airport:

Trip Planner

Search our weather history database for the weather conditions in past years. The results will help you decide how hot, cold, wet, or windy it might be!

Date:

Astronomy

Jul. 26, 2013 Rise Set
Actual Time 6:03 AM CDT 8:29 PM CDT
Civil Twilight 5:32 AM CDT 9:00 PM CDT
Nautical Twilight 4:53 AM CDT 9:38 PM CDT
Astronomical Twilight 4:11 AM CDT 10:21 PM CDT
Moon 10:43 PM CDT (7/26) 10:40 AM CDT (7/26)
Length of Visible Light 15h 28m
Length of Day
14h 26m
Waning Gibbous, 80% of the Moon is Illuminated
Jul 26
Waning Gibbous
Jul 29
Last Quarter
Aug 6
New
Aug 14
First Quarter
Aug 20
Full

Hourly Weather History & Observations

Time (CDT) Temp. Heat Index Dew Point Humidity Pressure Visibility Wind Dir Wind Speed Gust Speed Precip Events Conditions
12:55 AM 70.0 °F - 64.0 °F 81% 30.04 in 10.0 mi SSW 8.1 mph - N/A   Overcast
1:55 AM 69.1 °F - 64.0 °F 84% 30.02 in 8.0 mi South 6.9 mph - 0.00 in Rain Light Rain
2:55 AM 68.0 °F - 64.0 °F 87% 30.01 in 10.0 mi South 6.9 mph - 0.00 in   Overcast
3:55 AM 68.0 °F - 63.0 °F 84% 29.99 in 10.0 mi South 5.8 mph - N/A   Overcast
4:55 AM 68.0 °F - 62.1 °F 81% 29.99 in 10.0 mi South 6.9 mph - N/A   Overcast
5:55 AM 66.9 °F - 63.0 °F 87% 30.00 in 10.0 mi South 6.9 mph - 0.01 in Rain Light Rain
6:55 AM 66.0 °F - 64.0 °F 93% 30.03 in 4.0 mi SW 6.9 mph - 0.00 in Rain Light Rain
7:01 AM 66.2 °F - 64.4 °F 94% 30.04 in 1.8 mi SW 8.1 mph - 0.02 in Rain Rain
7:39 AM 66.2 °F - 64.4 °F 94% 30.03 in 3.0 mi SSW 5.8 mph - 0.13 in Rain Light Rain
7:55 AM 66.0 °F - 64.9 °F 96% 30.02 in 7.0 mi Calm Calm - 0.13 in Rain Light Rain
8:40 AM 68.0 °F - 66.2 °F 94% 30.01 in 6.0 mi South 3.5 mph - N/A   Mostly Cloudy
8:55 AM 68.0 °F - 66.0 °F 93% 30.01 in 8.0 mi SSW 4.6 mph - N/A   Overcast
9:55 AM 71.1 °F - 66.9 °F 87% 30.01 in 10.0 mi WSW 8.1 mph - N/A   Mostly Cloudy
10:47 AM 75.2 °F - 69.8 °F 83% 30.02 in 10.0 mi WSW 11.5 mph - N/A   Overcast
10:55 AM 75.9 °F - 69.1 °F 79% 30.01 in 10.0 mi SW 6.9 mph - N/A   Overcast
11:06 AM 73.4 °F - 69.8 °F 88% 30.02 in 10.0 mi SW 10.4 mph - N/A   Mostly Cloudy
11:13 AM 75.2 °F - 69.8 °F 83% 30.03 in 10.0 mi Variable 6.9 mph - N/A   Mostly Cloudy
11:55 AM 73.0 °F - 69.1 °F 87% 30.02 in 10.0 mi WSW 4.6 mph - N/A   Overcast
12:55 PM 79.0 °F - 70.0 °F 74% 30.01 in 10.0 mi Variable 5.8 mph - N/A   Mostly Cloudy
1:09 PM 80.6 °F 83.9 °F 69.8 °F 70% 30.01 in 10.0 mi WNW 6.9 mph - N/A   Mostly Cloudy
1:55 PM 81.0 °F 83.8 °F 68.0 °F 65% 29.99 in 10.0 mi NW 9.2 mph - N/A   Clear
2:55 PM 82.9 °F 85.4 °F 66.9 °F 58% 29.97 in 10.0 mi NNW 5.8 mph - N/A   Mostly Cloudy
3:55 PM 81.0 °F 82.7 °F 64.9 °F 58% 29.97 in 10.0 mi WNW 9.2 mph - N/A   Scattered Clouds
4:55 PM 82.9 °F 84.0 °F 63.0 °F 51% 29.98 in 10.0 mi NNW 9.2 mph - N/A   Clear
5:55 PM 82.0 °F 82.4 °F 60.1 °F 47% 29.98 in 10.0 mi NW 11.5 mph 18.4 mph N/A   Clear
6:55 PM 78.1 °F - 55.0 °F 45% 29.99 in 10.0 mi NNW 12.7 mph 19.6 mph N/A   Clear
7:55 PM 73.0 °F - 52.0 °F 48% 29.99 in 10.0 mi NNW 8.1 mph - N/A   Clear
8:55 PM 69.1 °F - 54.0 °F 58% 30.00 in 10.0 mi NNW 5.8 mph - N/A   Clear
9:55 PM 66.9 °F - 55.0 °F 66% 30.04 in 10.0 mi North 10.4 mph - N/A   Clear
10:55 PM 62.1 °F - 54.0 °F 75% 30.05 in 10.0 mi North 5.8 mph - N/A   Clear
11:55 PM 57.0 °F - 53.1 °F 87% 30.05 in 10.0 mi NNW 3.5 mph - N/A   Clear